Time,TemperatureF,DewpointF,PressureIn,WindDirection,WindDirectionDegrees,WindSpeedMPH,WindSpeedGustMPH,Humidity,HourlyPrecipIn,Conditions,Clouds,dailyrainin,SoftwareType,DateUTC
2013-01-27 00:00:00,22.5,8.6,30.32,WNW,293,3.4,5.4,55,0.00,,,0.00,WUHU216HW,2013-01-27 05:00:00,
2013-01-27 00:06:00,22.5,8.6,30.32,NW,315,2.7,5.4,55,0.00,,,0.00,WUHU216HW,2013-01-27 05:06:00,
2013-01-27 00:11:00,22.3,8.5,30.32,NNE,23,3.8,7.8,55,0.00,,,0.00,WUHU216HW,2013-01-27 05:11:00,
2013-01-27 00:16:00,22.3,8.5,30.33,WSW,248,4.9,7.8,55,0.00,,,0.00,WUHU216HW,2013-01-27 05:16:00,
2013-01-27 00:21:00,22.5,8.6,30.33,NW,315,2.9,6.9,55,0.00,,,0.00,WUHU216HW,2013-01-27 05:21:00,
2013-01-27 00:26:00,22.3,8.5,30.34,NNW,338,1.1,5.4,55,0.00,,,0.00,WUHU216HW,2013-01-27 05:26:00,
2013-01-27 00:31:00,22.3,8.5,30.33,NW,315,5.1,5.4,55,0.00,,,0.00,WUHU216HW,2013-01-27 05:31:00,
2013-01-27 00:36:00,22.3,8.5,30.34,NW,315,3.4,6.9,55,0.00,,,0.00,WUHU216HW,2013-01-27 05:36:00,
2013-01-27 00:41:00,22.1,8.4,30.34,NW,315,3.4,6.9,55,0.00,,,0.00,WUHU216HW,2013-01-27 05:41:00,
2013-01-27 00:46:00,22.0,8.2,30.34,West,270,3.4,4.7,55,0.00,,,0.00,WUHU216HW,2013-01-27 05:46:00,
2013-01-27 00:51:00,22.0,8.2,30.34,WNW,293,4.7,4.7,55,0.00,,,0.00,WUHU216HW,2013-01-27 05:51:00,
2013-01-27 00:56:00,22.0,8.2,30.34,NW,315,0.9,4.7,55,0.00,,,0.00,WUHU216HW,2013-01-27 05:56:00,
2013-01-27 01:01:00,22.0,8.2,30.34,NW,315,2.5,3.6,55,0.00,,,0.00,WUHU216HW,2013-01-27 06:01:00,
2013-01-27 01:06:00,21.8,8.0,30.34,WNW,293,3.4,6.0,55,0.00,,,0.00,WUHU216HW,2013-01-27 06:06:00,
2013-01-27 01:11:00,21.8,8.0,30.34,WSW,248,3.4,6.0,55,0.00,,,0.00,WUHU216HW,2013-01-27 06:11:00,
2013-01-27 01:16:00,21.8,8.4,30.35,NW,315,0.9,3.4,56,0.00,,,0.00,WUHU216HW,2013-01-27 06:16:00,
2013-01-27 01:22:00,21.8,8.4,30.35,North,0,6.3,6.3,56,0.00,,,0.00,WUHU216HW,2013-01-27 06:22:00,
2013-01-27 01:26:00,21.6,8.2,30.35,WNW,293,4.0,6.3,56,0.00,,,0.00,WUHU216HW,2013-01-27 06:26:00,
2013-01-27 01:31:00,21.6,8.2,30.35,WNW,293,0.9,4.0,56,0.00,,,0.00,WUHU216HW,2013-01-27 06:31:00,
2013-01-27 01:36:00,21.6,8.2,30.36,WNW,293,0.4,3.4,56,0.00,,,0.00,WUHU216HW,2013-01-27 06:36:00,
2013-01-27 01:41:00,21.6,8.2,30.36,SW,225,0.2,3.1,56,0.00,,,0.00,WUHU216HW,2013-01-27 06:41:00,
2013-01-27 01:46:00,21.8,8.4,30.36,West,270,3.1,3.6,56,0.00,,,0.00,WUHU216HW,2013-01-27 06:46:00,
2013-01-27 01:51:00,21.8,8.4,30.36,WSW,248,1.8,3.6,56,0.00,,,0.00,WUHU216HW,2013-01-27 06:51:00,
2013-01-27 01:56:00,21.8,8.4,30.37,NW,315,0.0,2.0,56,0.00,,,0.00,WUHU216HW,2013-01-27 06:56:00,
2013-01-27 02:01:00,21.8,8.4,30.37,WSW,248,2.7,2.7,56,0.00,,,0.00,WUHU216HW,2013-01-27 07:01:00,
2013-01-27 02:06:00,21.8,8.4,30.37,SW,225,1.6,2.7,56,0.00,,,0.00,WUHU216HW,2013-01-27 07:06:00,
2013-01-27 02:13:00,21.6,8.2,30.37,SW,225,0.4,2.7,56,0.00,,,0.00,WUHU216HW,2013-01-27 07:13:00,
2013-01-27 02:18:00,21.6,8.2,30.38,WSW,248,1.6,1.8,56,0.00,,,0.00,WUHU216HW,2013-01-27 07:18:00,
2013-01-27 02:23:00,21.6,8.2,30.38,SW,225,0.7,1.8,56,0.00,,,0.00,WUHU216HW,2013-01-27 07:23:00,
2013-01-27 02:28:00,21.4,8.5,30.38,WSW,248,0.4,1.6,57,0.00,,,0.00,WUHU216HW,2013-01-27 07:28:00,
2013-01-27 02:33:00,21.2,8.3,30.38,SW,225,0.9,1.6,57,0.00,,,0.00,WUHU216HW,2013-01-27 07:33:00,
2013-01-27 02:38:00,21.2,8.3,30.38,WSW,248,1.8,1.8,57,0.00,,,0.00,WUHU216HW,2013-01-27 07:38:00,
2013-01-27 02:43:00,21.2,8.3,30.38,WSW,248,0.7,1.8,57,0.00,,,0.00,WUHU216HW,2013-01-27 07:43:00,
2013-01-27 02:48:00,20.9,7.9,30.38,SW,225,0.4,1.6,57,0.00,,,0.00,WUHU216HW,2013-01-27 07:48:00,
2013-01-27 02:53:00,20.9,7.9,30.38,WSW,248,0.2,1.6,57,0.00,,,0.00,WUHU216HW,2013-01-27 07:53:00,
2013-01-27 02:58:00,20.7,7.7,30.38,WSW,248,1.1,1.1,57,0.00,,,0.00,WUHU216HW,2013-01-27 07:58:00,
2013-01-27 03:03:00,20.7,7.7,30.38,SW,225,0.9,1.8,57,0.00,,,0.00,WUHU216HW,2013-01-27 08:03:00,
2013-01-27 03:08:00,20.5,7.6,30.38,SSW,203,0.4,1.8,57,0.00,,,0.00,WUHU216HW,2013-01-27 08:08:00,
2013-01-27 03:13:00,20.5,7.6,30.38,SW,225,0.7,1.6,57,0.00,,,0.00,WUHU216HW,2013-01-27 08:13:00,
2013-01-27 03:18:00,20.5,7.6,30.38,WSW,248,0.7,1.6,57,0.00,,,0.00,WUHU216HW,2013-01-27 08:18:00,
2013-01-27 03:23:00,20.3,7.8,30.38,SW,225,0.4,0.7,58,0.00,,,0.00,WUHU216HW,2013-01-27 08:23:00,
2013-01-27 03:28:00,20.2,7.7,30.38,SW,225,0.7,0.9,58,0.00,,,0.00,WUHU216HW,2013-01-27 08:28:00,
2013-01-27 03:33:00,20.0,7.5,30.37,SW,225,2.5,2.5,58,0.00,,,0.00,WUHU216HW,2013-01-27 08:33:00,
2013-01-27 03:38:00,20.0,7.5,30.38,SW,225,1.1,2.5,58,0.00,,,0.00,WUHU216HW,2013-01-27 08:38:00,
2013-01-27 03:43:00,19.8,7.3,30.38,West,270,0.7,1.3,58,0.00,,,0.00,WUHU216HW,2013-01-27 08:43:00,
2013-01-27 03:48:00,19.8,7.3,30.38,SW,225,0.2,1.3,58,0.00,,,0.00,WUHU216HW,2013-01-27 08:48:00,
2013-01-27 03:53:00,19.8,7.3,30.38,SW,225,1.6,1.6,58,0.00,,,0.00,WUHU216HW,2013-01-27 08:53:00,
2013-01-27 03:58:00,19.6,7.1,30.38,SW,225,0.7,1.6,58,0.00,,,0.00,WUHU216HW,2013-01-27 08:58:00,
2013-01-27 04:03:00,19.4,7.4,30.38,WSW,248,0.9,1.6,59,0.00,,,0.00,WUHU216HW,2013-01-27 09:03:00,
2013-01-27 04:08:00,19.4,7.4,30.38,WSW,248,0.7,1.6,59,0.00,,,0.00,WUHU216HW,2013-01-27 09:08:00,
2013-01-27 04:13:00,19.3,7.2,30.38,West,270,0.4,2.0,59,0.00,,,0.00,WUHU216HW,2013-01-27 09:13:00,
2013-01-27 04:18:00,19.1,7.0,30.38,WSW,248,1.1,2.0,59,0.00,,,0.00,WUHU216HW,2013-01-27 09:18:00,
2013-01-27 04:23:00,19.1,7.0,30.38,West,270,0.9,2.5,59,0.00,,,0.00,WUHU216HW,2013-01-27 09:23:00,
2013-01-27 04:28:00,19.1,7.0,30.38,West,270,1.3,2.5,59,0.00,,,0.00,WUHU216HW,2013-01-27 09:28:00,
2013-01-27 04:33:00,19.1,7.0,30.37,SSW,203,2.2,2.5,59,0.00,,,0.00,WUHU216HW,2013-01-27 09:33:00,
2013-01-27 04:38:00,19.1,7.4,30.37,SSW,203,1.8,2.5,60,0.00,,,0.00,WUHU216HW,2013-01-27 09:38:00,
2013-01-27 04:43:00,18.9,7.3,30.38,WSW,248,1.1,2.2,60,0.00,,,0.00,WUHU216HW,2013-01-27 09:43:00,
2013-01-27 04:48:00,18.7,7.1,30.38,SSW,203,0.2,2.2,60,0.00,,,0.00,WUHU216HW,2013-01-27 09:48:00,
2013-01-27 04:53:00,18.7,7.1,30.38,WNW,293,1.8,1.8,60,0.00,,,0.00,WUHU216HW,2013-01-27 09:53:00,
2013-01-27 04:58:00,18.7,7.1,30.38,SW,225,0.4,1.8,60,0.00,,,0.00,WUHU216HW,2013-01-27 09:58:00,
2013-01-27 05:03:00,18.7,7.1,30.39,West,270,0.2,1.1,60,0.00,,,0.00,WUHU216HW,2013-01-27 10:03:00,
2013-01-27 05:08:00,18.9,7.3,30.39,SW,225,0.9,1.3,60,0.00,,,0.00,WUHU216HW,2013-01-27 10:08:00,
2013-01-27 05:13:00,18.9,7.6,30.39,WSW,248,0.2,1.3,61,0.00,,,0.00,WUHU216HW,2013-01-27 10:13:00,
2013-01-27 05:18:00,19.1,7.7,30.39,WNW,293,0.4,0.9,61,0.00,,,0.00,WUHU216HW,2013-01-27 10:18:00,
2013-01-27 05:23:00,19.1,7.7,30.39,WNW,293,0.2,1.8,61,0.00,,,0.00,WUHU216HW,2013-01-27 10:23:00,
2013-01-27 05:28:00,19.1,7.7,30.40,SW,225,1.1,1.8,61,0.00,,,0.00,WUHU216HW,2013-01-27 10:28:00,
2013-01-27 05:33:00,19.3,7.9,30.40,SSW,203,1.1,1.1,61,0.00,,,0.00,WUHU216HW,2013-01-27 10:33:00,
2013-01-27 05:38:00,19.3,7.9,30.40,WSW,248,1.3,1.3,61,0.00,,,0.00,WUHU216HW,2013-01-27 10:38:00,
2013-01-27 05:43:00,19.4,8.1,30.40,SW,225,0.4,1.3,61,0.00,,,0.00,WUHU216HW,2013-01-27 10:43:00,
2013-01-27 05:48:00,19.4,8.1,30.40,SSW,203,0.7,1.1,61,0.00,,,0.00,WUHU216HW,2013-01-27 10:48:00,
2013-01-27 05:53:00,19.4,8.1,30.40,SSW,203,0.0,1.1,61,0.00,,,0.00,WUHU216HW,2013-01-27 10:53:00,
2013-01-27 05:58:00,19.4,8.1,30.41,SW,225,0.0,1.1,61,0.00,,,0.00,WUHU216HW,2013-01-27 10:58:00,
2013-01-27 06:03:00,19.3,7.9,30.41,SW,225,0.2,0.9,61,0.00,,,0.00,WUHU216HW,2013-01-27 11:03:00,
2013-01-27 06:08:00,19.3,7.9,30.41,SW,225,0.0,0.4,61,0.00,,,0.00,WUHU216HW,2013-01-27 11:08:00,
2013-01-27 06:13:00,19.1,7.7,30.41,WSW,248,0.0,0.4,61,0.00,,,0.00,WUHU216HW,2013-01-27 11:13:00,
2013-01-27 06:18:00,19.1,7.7,30.41,WSW,248,0.4,0.4,61,0.00,,,0.00,WUHU216HW,2013-01-27 11:18:00,
2013-01-27 06:23:00,19.1,7.7,30.41,WSW,248,0.7,0.7,61,0.00,,,0.00,WUHU216HW,2013-01-27 11:23:00,
2013-01-27 06:28:00,19.1,7.7,30.41,West,270,0.4,2.0,61,0.00,,,0.00,WUHU216HW,2013-01-27 11:28:00,
2013-01-27 06:33:00,19.1,7.7,30.41,SW,225,1.1,2.0,61,0.00,,,0.00,WUHU216HW,2013-01-27 11:33:00,
2013-01-27 06:38:00,19.1,7.7,30.41,West,270,0.9,1.1,61,0.00,,,0.00,WUHU216HW,2013-01-27 11:38:00,
2013-01-27 06:43:00,19.1,7.7,30.41,SW,225,0.7,0.9,61,0.00,,,0.00,WUHU216HW,2013-01-27 11:43:00,
2013-01-27 06:48:00,19.1,7.7,30.41,SW,225,0.4,0.9,61,0.00,,,0.00,WUHU216HW,2013-01-27 11:48:00,
2013-01-27 06:53:00,19.1,7.7,30.41,WSW,248,1.3,1.3,61,0.00,,,0.00,WUHU216HW,2013-01-27 11:53:00,
2013-01-27 06:58:00,19.1,7.7,30.41,WSW,248,0.9,1.6,61,0.00,,,0.00,WUHU216HW,2013-01-27 11:58:00,
2013-01-27 07:03:00,19.1,7.7,30.41,SW,225,1.6,1.6,61,0.00,,,0.00,WUHU216HW,2013-01-27 12:03:00,
2013-01-27 07:08:00,19.3,7.9,30.41,West,270,0.4,2.0,61,0.00,,,0.00,WUHU216HW,2013-01-27 12:08:00,
2013-01-27 07:13:00,19.1,7.7,30.41,WSW,248,1.8,2.0,61,0.00,,,0.00,WUHU216HW,2013-01-27 12:13:00,
2013-01-27 07:18:00,19.1,7.7,30.42,SW,225,1.1,3.1,61,0.00,,,0.00,WUHU216HW,2013-01-27 12:18:00,
2013-01-27 07:23:00,19.1,7.7,30.42,SW,225,1.1,3.1,61,0.00,,,0.00,WUHU216HW,2013-01-27 12:23:00,
2013-01-27 07:28:00,19.1,7.7,30.42,West,270,1.3,2.5,61,0.00,,,0.00,WUHU216HW,2013-01-27 12:28:00,
2013-01-27 07:33:00,19.3,7.9,30.43,SSW,203,2.2,2.2,61,0.00,,,0.00,WUHU216HW,2013-01-27 12:33:00,
2013-01-27 07:38:00,19.3,7.9,30.43,WSW,248,1.6,3.4,61,0.00,,,0.00,WUHU216HW,2013-01-27 12:38:00,
2013-01-27 07:43:00,19.3,7.9,30.43,WSW,248,1.8,3.4,61,0.00,,,0.00,WUHU216HW,2013-01-27 12:43:00,
2013-01-27 07:48:00,19.6,8.3,30.43,SW,225,0.9,3.4,61,0.00,,,0.00,WUHU216HW,2013-01-27 12:48:00,
2013-01-27 07:53:00,19.8,8.8,30.43,West,270,1.8,3.8,62,0.00,,,0.00,WUHU216HW,2013-01-27 12:53:00,
2013-01-27 07:58:00,20.2,9.2,30.43,WNW,293,0.7,3.8,62,0.00,,,0.00,WUHU216HW,2013-01-27 12:58:00,
2013-01-27 08:03:00,20.3,9.4,30.44,WSW,248,2.0,4.9,62,0.00,,,0.00,WUHU216HW,2013-01-27 13:03:00,
2013-01-27 08:08:00,20.5,9.6,30.44,WSW,248,2.2,4.9,62,0.00,,,0.00,WUHU216HW,2013-01-27 13:08:00,
2013-01-27 08:13:00,20.9,9.9,30.44,NW,315,5.6,5.6,62,0.00,,,0.00,WUHU216HW,2013-01-27 13:13:00,
2013-01-27 08:18:00,21.2,10.3,30.44,NW,315,3.6,5.6,62,0.00,,,0.00,WUHU216HW,2013-01-27 13:18:00,
2013-01-27 08:23:00,21.6,10.5,30.44,SSW,203,1.1,4.7,62,0.00,,,0.00,WUHU216HW,2013-01-27 13:23:00,
2013-01-27 08:28:00,22.0,10.9,30.45,NNW,338,2.9,4.7,62,0.00,,,0.00,WUHU216HW,2013-01-27 13:28:00,
2013-01-27 08:33:00,22.3,11.3,30.45,West,270,3.6,4.7,62,0.00,,,0.00,WUHU216HW,2013-01-27 13:33:00,
2013-01-27 08:38:00,22.5,11.1,30.45,NW,315,6.5,6.5,61,0.00,,,0.00,WUHU216HW,2013-01-27 13:38:00,
2013-01-27 08:43:00,22.7,11.2,30.46,SSW,203,3.4,6.5,61,0.00,,,0.00,WUHU216HW,2013-01-27 13:43:00,
2013-01-27 08:48:00,23.0,11.5,30.46,WNW,293,2.5,4.7,61,0.00,,,0.00,WUHU216HW,2013-01-27 13:48:00,
2013-01-27 08:53:00,23.4,11.9,30.45,West,270,1.6,4.7,61,0.00,,,0.00,WUHU216HW,2013-01-27 13:53:00,
2013-01-27 08:58:00,23.6,12.1,30.46,NNW,338,3.4,9.8,61,0.00,,,0.00,WUHU216HW,2013-01-27 13:58:00,
2013-01-27 09:03:00,23.9,12.4,30.46,SW,225,1.1,9.8,61,0.00,,,0.00,WUHU216HW,2013-01-27 14:03:00,
2013-01-27 09:08:00,24.1,12.6,30.46,NW,315,4.0,6.3,61,0.00,,,0.00,WUHU216HW,2013-01-27 14:08:00,
2013-01-27 09:13:00,24.7,13.2,30.46,West,270,4.5,7.4,61,0.00,,,0.00,WUHU216HW,2013-01-27 14:13:00,
2013-01-27 09:18:00,24.8,13.0,30.46,West,270,3.6,10.7,60,0.00,,,0.00,WUHU216HW,2013-01-27 14:18:00,
2013-01-27 09:23:00,25.2,13.3,30.46,NNW,338,9.2,10.7,60,0.00,,,0.00,WUHU216HW,2013-01-27 14:23:00,
2013-01-27 09:28:00,25.6,13.6,30.46,NNW,338,4.7,9.6,60,0.00,,,0.00,WUHU216HW,2013-01-27 14:28:00,
2013-01-27 09:33:00,25.6,13.6,30.46,West,270,3.6,9.6,60,0.00,,,0.00,WUHU216HW,2013-01-27 14:33:00,
2013-01-27 09:38:00,25.9,13.5,30.46,WSW,248,5.4,8.9,59,0.00,,,0.00,WUHU216HW,2013-01-27 14:38:00,
2013-01-27 09:43:00,26.1,13.7,30.46,NNW,338,3.1,16.3,59,0.00,,,0.00,WUHU216HW,2013-01-27 14:43:00,
2013-01-27 09:48:00,26.5,14.4,30.46,NW,315,8.7,16.3,60,0.00,,,0.00,WUHU216HW,2013-01-27 14:48:00,
2013-01-27 09:53:00,26.6,14.6,30.47,WSW,248,3.6,8.7,60,0.00,,,0.00,WUHU216HW,2013-01-27 14:53:00,
2013-01-27 09:58:00,27.0,14.5,30.47,West,270,8.1,8.1,59,0.00,,,0.00,WUHU216HW,2013-01-27 14:58:00,
2013-01-27 10:03:00,27.2,14.3,30.47,NW,315,8.1,8.7,58,0.00,,,0.00,WUHU216HW,2013-01-27 15:03:00,
2013-01-27 10:08:00,27.4,14.5,30.48,WNW,293,5.8,8.7,58,0.00,,,0.00,WUHU216HW,2013-01-27 15:08:00,
2013-01-27 10:13:00,27.5,14.7,30.48,North,0,6.0,10.1,58,0.00,,,0.00,WUHU216HW,2013-01-27 15:13:00,
2013-01-27 10:18:00,27.9,15.0,30.48,North,0,2.5,10.1,58,0.00,,,0.00,WUHU216HW,2013-01-27 15:18:00,
2013-01-27 10:23:00,28.3,14.9,30.48,NW,315,6.9,14.1,57,0.00,,,0.00,WUHU216HW,2013-01-27 15:23:00,
2013-01-27 10:28:00,28.4,15.1,30.48,SW,225,2.0,14.1,57,0.00,,,0.00,WUHU216HW,2013-01-27 15:28:00,
2013-01-27 10:33:00,28.4,15.1,30.48,West,270,6.9,10.5,57,0.00,,,0.00,WUHU216HW,2013-01-27 15:33:00,
2013-01-27 10:38:00,28.8,15.0,30.48,NNW,338,7.8,10.5,56,0.00,,,0.00,WUHU216HW,2013-01-27 15:38:00,
2013-01-27 10:43:00,28.8,14.7,30.48,West,270,5.6,9.8,55,0.00,,,0.00,WUHU216HW,2013-01-27 15:43:00,
2013-01-27 10:48:00,29.0,15.2,30.48,NNW,338,10.5,10.5,56,0.00,,,0.00,WUHU216HW,2013-01-27 15:48:00,
2013-01-27 10:53:00,29.0,14.8,30.48,NW,315,8.5,10.5,55,0.00,,,0.00,WUHU216HW,2013-01-27 15:53:00,
2013-01-27 10:58:00,29.2,14.9,30.48,WSW,248,3.6,8.5,55,0.00,,,0.00,WUHU216HW,2013-01-27 15:58:00,
2013-01-27 11:03:00,29.5,15.3,30.48,WNW,293,3.8,8.9,55,0.00,,,0.00,WUHU216HW,2013-01-27 16:03:00,
2013-01-27 11:08:00,29.9,15.2,30.48,WNW,293,8.7,8.9,54,0.00,,,0.00,WUHU216HW,2013-01-27 16:08:00,
2013-01-27 11:13:00,29.9,14.8,30.48,NW,315,7.6,9.4,53,0.00,,,0.00,WUHU216HW,2013-01-27 16:13:00,
2013-01-27 11:18:00,30.1,14.9,30.47,WSW,248,4.0,9.4,53,0.00,,,0.00,WUHU216HW,2013-01-27 16:18:00,
2013-01-27 11:23:00,30.4,15.3,30.47,NNW,338,4.5,9.2,53,0.00,,,0.00,WUHU216HW,2013-01-27 16:23:00,
2013-01-27 11:28:00,30.6,15.0,30.47,NW,315,6.9,9.2,52,0.00,,,0.00,WUHU216HW,2013-01-27 16:28:00,
2013-01-27 11:33:00,30.6,15.0,30.46,NW,315,5.8,10.3,52,0.00,,,0.00,WUHU216HW,2013-01-27 16:33:00,
2013-01-27 11:38:00,30.8,15.2,30.46,NNW,338,4.9,10.3,52,0.00,,,0.00,WUHU216HW,2013-01-27 16:38:00,
2013-01-27 11:43:00,31.1,15.5,30.46,NW,315,2.5,6.9,52,0.00,,,0.00,WUHU216HW,2013-01-27 16:43:00,
2013-01-27 11:48:00,31.3,15.3,30.46,West,270,6.3,8.5,51,0.00,,,0.00,WUHU216HW,2013-01-27 16:48:00,
2013-01-27 11:53:00,31.5,15.8,30.46,SSW,203,3.6,8.5,52,0.00,,,0.00,WUHU216HW,2013-01-27 16:53:00,
2013-01-27 11:58:00,31.7,15.6,30.46,NNW,338,10.1,10.1,51,0.00,,,0.00,WUHU216HW,2013-01-27 16:58:00,
2013-01-27 12:03:00,31.9,15.8,30.45,WSW,248,2.2,10.1,51,0.00,,,0.00,WUHU216HW,2013-01-27 17:03:00,
2013-01-27 12:08:00,32.0,16.4,30.45,NNW,338,2.2,6.3,52,0.00,,,0.00,WUHU216HW,2013-01-27 17:08:00,
2013-01-27 12:13:00,32.4,16.2,30.45,NW,315,5.4,9.4,51,0.00,,,0.00,WUHU216HW,2013-01-27 17:13:00,
2013-01-27 12:18:00,32.6,16.4,30.45,NW,315,6.0,9.4,51,0.00,,,0.00,WUHU216HW,2013-01-27 17:18:00,
2013-01-27 12:23:00,32.8,16.1,30.44,West,270,6.3,7.8,50,0.00,,,0.00,WUHU216HW,2013-01-27 17:23:00,
2013-01-27 12:28:00,32.8,16.1,30.44,SW,225,5.4,7.8,50,0.00,,,0.00,WUHU216HW,2013-01-27 17:28:00,
2013-01-27 12:33:00,32.9,16.8,30.44,SW,225,3.4,5.4,51,0.00,,,0.00,WUHU216HW,2013-01-27 17:33:00,
2013-01-27 12:38:00,33.1,16.5,30.44,NW,315,2.9,5.1,50,0.00,,,0.00,WUHU216HW,2013-01-27 17:38:00,
2013-01-27 12:43:00,33.3,16.1,30.43,NW,315,9.6,9.6,49,0.00,,,0.00,WUHU216HW,2013-01-27 17:43:00,
2013-01-27 12:48:00,33.1,15.5,30.43,West,270,3.8,9.6,48,0.00,,,0.00,WUHU216HW,2013-01-27 17:48:00,
2013-01-27 12:53:00,33.3,16.1,30.43,SW,225,4.7,5.4,49,0.00,,,0.00,WUHU216HW,2013-01-27 17:53:00,
2013-01-27 12:58:00,33.5,16.3,30.43,SSW,203,1.8,6.3,49,0.00,,,0.00,WUHU216HW,2013-01-27 17:58:00,
2013-01-27 13:03:00,33.7,16.5,30.43,WSW,248,7.6,7.6,49,0.00,,,0.00,WUHU216HW,2013-01-27 18:03:00,
2013-01-27 13:08:00,33.7,15.9,30.43,WNW,293,1.1,7.6,48,0.00,,,0.00,WUHU216HW,2013-01-27 18:08:00,
2013-01-27 13:13:00,33.7,15.9,30.43,West,270,0.9,7.6,48,0.00,,,0.00,WUHU216HW,2013-01-27 18:13:00,
2013-01-27 13:18:00,33.8,16.1,30.43,NW,315,5.6,5.6,48,0.00,,,0.00,WUHU216HW,2013-01-27 18:18:00,
2013-01-27 13:23:00,33.8,16.1,30.43,SW,225,3.8,9.4,48,0.00,,,0.00,WUHU216HW,2013-01-27 18:23:00,
2013-01-27 13:28:00,34.0,16.3,30.42,WNW,293,5.6,9.4,48,0.00,,,0.00,WUHU216HW,2013-01-27 18:28:00,
2013-01-27 13:33:00,34.0,16.3,30.43,NNW,338,5.1,8.3,48,0.00,,,0.00,WUHU216HW,2013-01-27 18:33:00,
2013-01-27 13:38:00,34.2,16.5,30.43,West,270,5.4,5.4,48,0.00,,,0.00,WUHU216HW,2013-01-27 18:38:00,
2013-01-27 13:43:00,34.4,16.7,30.42,NW,315,3.6,5.4,48,0.00,,,0.00,WUHU216HW,2013-01-27 18:43:00,
2013-01-27 13:48:00,34.4,16.1,30.43,WNW,293,2.7,8.5,47,0.00,,,0.00,WUHU216HW,2013-01-27 18:48:00,
2013-01-27 13:53:00,34.4,16.1,30.43,NW,315,5.4,9.2,47,0.00,,,0.00,WUHU216HW,2013-01-27 18:53:00,
2013-01-27 13:58:00,34.6,16.8,30.43,SW,225,3.4,9.2,48,0.00,,,0.00,WUHU216HW,2013-01-27 18:58:00,
2013-01-27 14:03:00,34.7,16.5,30.43,SSW,203,3.4,6.9,47,0.00,,,0.00,WUHU216HW,2013-01-27 19:03:00,
2013-01-27 14:08:00,34.9,16.7,30.43,SW,225,2.2,6.5,47,0.00,,,0.00,WUHU216HW,2013-01-27 19:08:00,
2013-01-27 14:13:00,34.9,17.2,30.42,SW,225,4.5,6.5,48,0.00,,,0.00,WUHU216HW,2013-01-27 19:13:00,
2013-01-27 14:18:00,34.9,16.7,30.43,West,270,3.4,4.7,47,0.00,,,0.00,WUHU216HW,2013-01-27 19:18:00,
2013-01-27 14:23:00,35.1,17.4,30.42,SSW,203,3.8,5.8,48,0.00,,,0.00,WUHU216HW,2013-01-27 19:23:00,
2013-01-27 14:28:00,35.3,17.0,30.42,NNW,338,1.3,5.8,47,0.00,,,0.00,WUHU216HW,2013-01-27 19:28:00,
2013-01-27 14:33:00,35.3,17.0,30.42,SW,225,3.4,4.5,47,0.00,,,0.00,WUHU216HW,2013-01-27 19:33:00,
2013-01-27 14:38:00,35.3,17.0,30.42,NW,315,4.5,4.5,47,0.00,,,0.00,WUHU216HW,2013-01-27 19:38:00,
2013-01-27 14:43:00,35.3,17.0,30.42,SW,225,3.4,4.5,47,0.00,,,0.00,WUHU216HW,2013-01-27 19:43:00,
2013-01-27 14:48:00,35.3,16.5,30.42,West,270,2.0,4.9,46,0.00,,,0.00,WUHU216HW,2013-01-27 19:48:00,
2013-01-27 14:53:00,35.3,16.5,30.42,West,270,3.4,5.4,46,0.00,,,0.00,WUHU216HW,2013-01-27 19:53:00,
2013-01-27 14:58:00,35.5,17.2,30.42,West,270,4.3,5.4,47,0.00,,,0.00,WUHU216HW,2013-01-27 19:58:00,
2013-01-27 15:03:00,35.5,16.7,30.42,NW,315,1.3,4.3,46,0.00,,,0.00,WUHU216HW,2013-01-27 20:03:00,
2013-01-27 15:08:00,35.5,16.7,30.42,SW,225,3.6,4.3,46,0.00,,,0.00,WUHU216HW,2013-01-27 20:08:00,
2013-01-27 15:13:00,35.5,16.7,30.42,WSW,248,3.6,4.0,46,0.00,,,0.00,WUHU216HW,2013-01-27 20:13:00,
2013-01-27 15:18:00,35.5,16.7,30.42,West,270,3.4,4.3,46,0.00,,,0.00,WUHU216HW,2013-01-27 20:18:00,
2013-01-27 15:23:00,35.5,16.7,30.42,WSW,248,1.8,4.3,46,0.00,,,0.00,WUHU216HW,2013-01-27 20:23:00,
2013-01-27 15:28:00,35.3,16.5,30.42,NW,315,1.8,4.3,46,0.00,,,0.00,WUHU216HW,2013-01-27 20:28:00,
2013-01-27 15:33:00,35.6,16.8,30.42,SSW,203,1.8,2.7,46,0.00,,,0.00,WUHU216HW,2013-01-27 20:33:00,
2013-01-27 15:38:00,35.6,16.8,30.43,WSW,248,3.4,5.6,46,0.00,,,0.00,WUHU216HW,2013-01-27 20:38:00,
2013-01-27 15:43:00,35.5,16.1,30.43,WSW,248,2.5,5.6,45,0.00,,,0.00,WUHU216HW,2013-01-27 20:43:00,
2013-01-27 15:48:00,35.5,16.7,30.43,SW,225,1.8,5.4,46,0.00,,,0.00,WUHU216HW,2013-01-27 20:48:00,
2013-01-27 15:53:00,35.5,16.7,30.43,WSW,248,0.7,3.4,46,0.00,,,0.00,WUHU216HW,2013-01-27 20:53:00,
2013-01-27 15:58:00,35.3,16.5,30.43,SSW,203,2.0,5.4,46,0.00,,,0.00,WUHU216HW,2013-01-27 20:58:00,
2013-01-27 16:03:00,35.3,16.5,30.43,WSW,248,1.3,5.4,46,0.00,,,0.00,WUHU216HW,2013-01-27 21:03:00,
2013-01-27 16:08:00,35.5,16.7,30.43,NW,315,2.2,2.9,46,0.00,,,0.00,WUHU216HW,2013-01-27 21:08:00,
2013-01-27 16:13:00,35.3,15.9,30.43,SW,225,0.7,4.0,45,0.00,,,0.00,WUHU216HW,2013-01-27 21:13:00,
2013-01-27 16:18:00,35.1,16.3,30.44,SW,225,1.8,4.0,46,0.00,,,0.00,WUHU216HW,2013-01-27 21:18:00,
2013-01-27 16:23:00,34.9,16.1,30.44,WSW,248,1.6,3.8,46,0.00,,,0.00,WUHU216HW,2013-01-27 21:23:00,
2013-01-27 16:28:00,34.9,16.7,30.44,SSW,203,0.9,3.4,47,0.00,,,0.00,WUHU216HW,2013-01-27 21:28:00,
2013-01-27 16:33:00,34.7,16.5,30.44,SW,225,1.1,3.6,47,0.00,,,0.00,WUHU216HW,2013-01-27 21:33:00,
2013-01-27 16:38:00,34.7,16.5,30.43,West,270,0.9,3.6,47,0.00,,,0.00,WUHU216HW,2013-01-27 21:38:00,
2013-01-27 16:43:00,34.6,16.3,30.43,WSW,248,1.3,1.8,47,0.00,,,0.00,WUHU216HW,2013-01-27 21:43:00,
2013-01-27 16:48:00,34.6,16.3,30.44,SSW,203,0.7,1.3,47,0.00,,,0.00,WUHU216HW,2013-01-27 21:48:00,
2013-01-27 16:53:00,34.6,16.3,30.44,SSW,203,0.7,1.8,47,0.00,,,0.00,WUHU216HW,2013-01-27 21:53:00,
2013-01-27 16:58:00,34.4,16.1,30.43,SW,225,1.1,2.0,47,0.00,,,0.00,WUHU216HW,2013-01-27 21:58:00,
2013-01-27 17:03:00,34.2,15.9,30.43,WSW,248,1.3,2.5,47,0.00,,,0.00,WUHU216HW,2013-01-27 22:03:00,
2013-01-27 17:08:00,34.2,15.9,30.43,West,270,1.1,2.9,47,0.00,,,0.00,WUHU216HW,2013-01-27 22:08:00,
2013-01-27 17:13:00,33.8,15.6,30.44,NNW,338,0.4,4.5,47,0.00,,,0.00,WUHU216HW,2013-01-27 22:13:00,
2013-01-27 17:18:00,33.7,15.9,30.44,West,270,1.6,4.5,48,0.00,,,0.00,WUHU216HW,2013-01-27 22:18:00,
2013-01-27 17:23:00,33.7,15.9,30.44,West,270,0.4,1.8,48,0.00,,,0.00,WUHU216HW,2013-01-27 22:23:00,
2013-01-27 17:28:00,33.7,15.9,30.45,WSW,248,0.4,2.5,48,0.00,,,0.00,WUHU216HW,2013-01-27 22:28:00,
2013-01-27 17:33:00,33.7,15.9,30.45,WSW,248,0.4,2.5,48,0.00,,,0.00,WUHU216HW,2013-01-27 22:33:00,
2013-01-27 17:38:00,33.5,15.8,30.45,SW,225,0.4,2.9,48,0.00,,,0.00,WUHU216HW,2013-01-27 22:38:00,
2013-01-27 17:43:00,33.5,15.8,30.46,WSW,248,0.4,2.9,48,0.00,,,0.00,WUHU216HW,2013-01-27 22:43:00,
2013-01-27 17:48:00,33.5,16.3,30.46,NNW,338,0.7,2.0,49,0.00,,,0.00,WUHU216HW,2013-01-27 22:48:00,
2013-01-27 17:53:00,33.3,16.1,30.46,SW,225,1.3,2.0,49,0.00,,,0.00,WUHU216HW,2013-01-27 22:53:00,
2013-01-27 17:58:00,33.1,15.9,30.46,West,270,0.2,1.3,49,0.00,,,0.00,WUHU216HW,2013-01-27 22:58:00,
2013-01-27 18:03:00,33.1,15.9,30.46,WSW,248,0.0,1.8,49,0.00,,,0.00,WUHU216HW,2013-01-27 23:03:00,
2013-01-27 18:08:00,33.1,15.9,30.46,SW,225,0.9,1.8,49,0.00,,,0.00,WUHU216HW,2013-01-27 23:08:00,
2013-01-27 18:13:00,32.9,15.8,30.46,SW,225,0.4,1.8,49,0.00,,,0.00,WUHU216HW,2013-01-27 23:13:00,
2013-01-27 18:18:00,32.9,16.3,30.46,SW,225,0.2,1.8,50,0.00,,,0.00,WUHU216HW,2013-01-27 23:18:00,
2013-01-27 18:23:00,32.8,16.1,30.46,SSW,203,0.7,1.3,50,0.00,,,0.00,WUHU216HW,2013-01-27 23:23:00,
2013-01-27 18:28:00,32.8,16.1,30.46,SW,225,0.4,1.3,50,0.00,,,0.00,WUHU216HW,2013-01-27 23:28:00,
2013-01-27 18:33:00,32.8,16.1,30.46,WSW,248,0.4,1.3,50,0.00,,,0.00,WUHU216HW,2013-01-27 23:33:00,
2013-01-27 18:38:00,32.8,16.1,30.46,WNW,293,0.0,1.1,50,0.00,,,0.00,WUHU216HW,2013-01-27 23:38:00,
2013-01-27 18:43:00,32.6,15.9,30.46,WNW,293,1.8,2.5,50,0.00,,,0.00,WUHU216HW,2013-01-27 23:43:00,
2013-01-27 18:48:00,32.6,15.9,30.46,WSW,248,0.9,2.5,50,0.00,,,0.00,WUHU216HW,2013-01-27 23:48:00,
2013-01-27 18:53:00,32.4,15.9,30.46,SW,225,0.4,1.6,50,0.00,,,0.00,WUHU216HW,2013-01-27 23:53:00,
2013-01-27 18:58:00,32.4,15.9,30.46,SW,225,0.2,1.6,50,0.00,,,0.00,WUHU216HW,2013-01-27 23:58:00,
2013-01-27 19:03:00,32.4,16.2,30.46,WSW,248,0.0,1.6,51,0.00,,,0.00,WUHU216HW,2013-01-28 00:03:00,
2013-01-27 19:08:00,32.2,16.1,30.46,WSW,248,0.2,0.7,51,0.00,,,0.00,WUHU216HW,2013-01-28 00:08:00,
2013-01-27 19:13:00,32.2,16.1,30.46,SW,225,0.9,0.9,51,0.00,,,0.00,WUHU216HW,2013-01-28 00:13:00,
2013-01-27 19:19:00,32.0,15.9,30.46,SSW,203,0.2,0.9,51,0.00,,,0.00,WUHU216HW,2013-01-28 00:19:00,
2013-01-27 19:24:00,32.0,15.9,30.46,SSW,203,0.0,0.7,51,0.00,,,0.00,WUHU216HW,2013-01-28 00:24:00,
2013-01-27 19:29:00,31.9,15.8,30.46,SW,225,0.7,0.7,51,0.00,,,0.00,WUHU216HW,2013-01-28 00:29:00,
2013-01-27 19:34:00,31.7,15.6,30.46,SW,225,0.9,0.9,51,0.00,,,0.00,WUHU216HW,2013-01-28 00:34:00,
2013-01-27 19:38:00,31.5,15.8,30.46,SW,225,0.4,0.9,52,0.00,,,0.00,WUHU216HW,2013-01-28 00:38:00,
2013-01-27 19:44:00,31.5,15.8,30.46,SW,225,0.4,1.1,52,0.00,,,0.00,WUHU216HW,2013-01-28 00:44:00,
2013-01-27 19:49:00,31.3,15.7,30.46,SSW,203,1.1,1.1,52,0.00,,,0.00,WUHU216HW,2013-01-28 00:49:00,
2013-01-27 19:54:00,31.3,15.7,30.46,WSW,248,0.4,1.1,52,0.00,,,0.00,WUHU216HW,2013-01-28 00:54:00,
2013-01-27 19:59:00,31.3,15.7,30.46,SW,225,0.4,0.9,52,0.00,,,0.00,WUHU216HW,2013-01-28 00:59:00,
2013-01-27 20:04:00,31.1,15.5,30.46,SW,225,0.2,0.7,52,0.00,,,0.00,WUHU216HW,2013-01-28 01:04:00,
2013-01-27 20:09:00,31.0,15.4,30.46,WSW,248,0.4,0.4,52,0.00,,,0.00,WUHU216HW,2013-01-28 01:09:00,
2013-01-27 20:14:00,31.0,15.4,30.45,SW,225,0.2,0.4,52,0.00,,,0.00,WUHU216HW,2013-01-28 01:14:00,
2013-01-27 20:19:00,31.0,15.4,30.45,SW,225,0.4,0.4,52,0.00,,,0.00,WUHU216HW,2013-01-28 01:19:00,
2013-01-27 20:24:00,30.8,15.2,30.45,SW,225,0.0,0.4,52,0.00,,,0.00,WUHU216HW,2013-01-28 01:24:00,
2013-01-27 20:29:00,30.8,15.2,30.45,SW,225,0.2,0.4,52,0.00,,,0.00,WUHU216HW,2013-01-28 01:29:00,
2013-01-27 20:34:00,30.6,15.0,30.45,SW,225,0.0,0.7,52,0.00,,,0.00,WUHU216HW,2013-01-28 01:34:00,
2013-01-27 20:39:00,30.6,15.0,30.45,SW,225,0.0,0.7,52,0.00,,,0.00,WUHU216HW,2013-01-28 01:39:00,
2013-01-27 20:44:00,30.6,15.0,30.45,SW,225,0.0,0.2,52,0.00,,,0.00,WUHU216HW,2013-01-28 01:44:00,
2013-01-27 20:49:00,30.4,14.9,30.45,SW,225,0.2,0.2,52,0.00,,,0.00,WUHU216HW,2013-01-28 01:49:00,
2013-01-27 20:54:00,30.2,15.1,30.46,SW,225,0.2,0.2,53,0.00,,,0.00,WUHU216HW,2013-01-28 01:54:00,
2013-01-27 20:59:00,30.1,14.9,30.46,WSW,248,0.0,0.2,53,0.00,,,0.00,WUHU216HW,2013-01-28 01:59:00,
2013-01-27 21:04:00,30.1,14.9,30.46,WSW,248,0.0,0.2,53,0.00,,,0.00,WUHU216HW,2013-01-28 02:04:00,
2013-01-27 21:09:00,29.9,14.8,30.46,WSW,248,0.0,0.2,53,0.00,,,0.00,WUHU216HW,2013-01-28 02:09:00,
2013-01-27 21:14:00,29.9,15.2,30.46,WSW,248,0.2,0.4,54,0.00,,,0.00,WUHU216HW,2013-01-28 02:14:00,
2013-01-27 21:19:00,29.7,15.0,30.46,WSW,248,0.4,0.4,54,0.00,,,0.00,WUHU216HW,2013-01-28 02:19:00,
2013-01-27 21:24:00,29.5,14.9,30.46,WSW,248,0.2,0.4,54,0.00,,,0.00,WUHU216HW,2013-01-28 02:24:00,
2013-01-27 21:29:00,29.5,14.9,30.46,WSW,248,0.0,0.2,54,0.00,,,0.00,WUHU216HW,2013-01-28 02:29:00,
2013-01-27 21:34:00,29.5,14.9,30.46,WSW,248,0.2,0.2,54,0.00,,,0.00,WUHU216HW,2013-01-28 02:34:00,
2013-01-27 21:39:00,29.3,14.7,30.46,WSW,248,0.0,0.7,54,0.00,,,0.00,WUHU216HW,2013-01-28 02:39:00,
2013-01-27 21:44:00,29.2,14.9,30.47,WSW,248,0.2,0.7,55,0.00,,,0.00,WUHU216HW,2013-01-28 02:44:00,
2013-01-27 21:49:00,29.2,14.9,30.46,WSW,248,0.2,0.4,55,0.00,,,0.00,WUHU216HW,2013-01-28 02:49:00,
2013-01-27 21:54:00,29.0,14.8,30.46,SW,225,0.2,0.2,55,0.00,,,0.00,WUHU216HW,2013-01-28 02:54:00,
2013-01-27 21:59:00,28.8,14.7,30.46,SSW,203,0.2,0.2,55,0.00,,,0.00,WUHU216HW,2013-01-28 02:59:00,
2013-01-27 22:04:00,28.6,14.9,30.46,SSW,203,0.0,0.2,56,0.00,,,0.00,WUHU216HW,2013-01-28 03:04:00,
2013-01-27 22:09:00,28.4,14.8,30.45,SSW,203,0.0,0.2,56,0.00,,,0.00,WUHU216HW,2013-01-28 03:09:00,
2013-01-27 22:14:00,28.4,14.8,30.45,SSW,203,0.0,0.0,56,0.00,,,0.00,WUHU216HW,2013-01-28 03:14:00,
2013-01-27 22:19:00,28.3,14.6,30.44,SSW,203,0.0,0.0,56,0.00,,,0.00,WUHU216HW,2013-01-28 03:19:00,
2013-01-27 22:24:00,28.1,14.8,30.44,SSW,203,0.2,0.2,57,0.00,,,0.00,WUHU216HW,2013-01-28 03:24:00,
2013-01-27 22:29:00,28.1,14.8,30.44,SSW,203,0.0,0.2,57,0.00,,,0.00,WUHU216HW,2013-01-28 03:29:00,
2013-01-27 22:34:00,27.9,14.6,30.45,SSW,203,0.0,0.2,57,0.00,,,0.00,WUHU216HW,2013-01-28 03:34:00,
2013-01-27 22:39:00,27.7,14.4,30.44,SSW,203,0.0,0.2,57,0.00,,,0.00,WUHU216HW,2013-01-28 03:39:00,
2013-01-27 22:44:00,27.7,14.9,30.45,SSW,203,0.0,0.2,58,0.00,,,0.00,WUHU216HW,2013-01-28 03:44:00,
2013-01-27 22:49:00,27.5,14.7,30.44,SSW,203,0.0,0.0,58,0.00,,,0.00,WUHU216HW,2013-01-28 03:49:00,
2013-01-27 22:54:00,27.5,14.7,30.44,SSW,203,0.0,0.0,58,0.00,,,0.00,WUHU216HW,2013-01-28 03:54:00,
2013-01-27 22:59:00,27.4,14.5,30.44,SW,225,0.0,0.4,58,0.00,,,0.00,WUHU216HW,2013-01-28 03:59:00,
2013-01-27 23:04:00,27.2,14.7,30.44,SW,225,0.0,0.4,59,0.00,,,0.00,WUHU216HW,2013-01-28 04:04:00,
2013-01-27 23:09:00,27.2,14.7,30.44,SSW,203,0.0,0.4,59,0.00,,,0.00,WUHU216HW,2013-01-28 04:09:00,
2013-01-27 23:14:00,27.2,14.7,30.44,SSW,203,0.0,0.0,59,0.00,,,0.00,WUHU216HW,2013-01-28 04:14:00,
2013-01-27 23:19:00,27.0,14.5,30.43,SSW,203,0.0,0.2,59,0.00,,,0.00,WUHU216HW,2013-01-28 04:19:00,
2013-01-27 23:24:00,27.0,14.5,30.44,SSW,203,0.0,0.4,59,0.00,,,0.00,WUHU216HW,2013-01-28 04:24:00,
2013-01-27 23:29:00,27.0,14.9,30.44,SSW,203,0.0,0.4,60,0.00,,,0.00,WUHU216HW,2013-01-28 04:29:00,
2013-01-27 23:34:00,26.8,14.8,30.44,SSW,203,0.0,0.4,60,0.00,,,0.00,WUHU216HW,2013-01-28 04:34:00,
2013-01-27 23:39:00,26.6,14.6,30.44,SSW,203,0.0,0.2,60,0.00,,,0.00,WUHU216HW,2013-01-28 04:39:00,
2013-01-27 23:44:00,26.6,14.6,30.44,SSW,203,0.2,0.2,60,0.00,,,0.00,WUHU216HW,2013-01-28 04:44:00,
2013-01-27 23:49:00,26.5,14.4,30.44,SSW,203,0.2,0.2,60,0.00,,,0.00,WUHU216HW,2013-01-28 04:49:00,
2013-01-27 23:54:00,26.5,14.8,30.44,SW,225,0.2,0.2,61,0.00,,,0.00,WUHU216HW,2013-01-28 04:54:00,
2013-01-27 23:59:00,26.5,14.8,30.44,SW,225,0.0,0.2,61,0.00,,,0.00,WUHU216HW,2013-01-28 04:59:00,